[[{"header":{"parameterUnit":"m.s-1","parameterCategory":1,"la1":30.2991,"la2":30.254,"lo1":-89.0895,"lo2":-89.0444,"dy":0.0017,"dx":0.0017,"nx":28,"ny":28,"refTime":"2025-12-30T09:00:00:Z","depth":0,"parameterNumber":2,"parameterNumberName":"U-component_of_WINDS"},"data":[0,0,0,0,0,0,0,0,0,0,0,0,0,0,0,0,0,0,0,0,0,0,0,0,0,0,0,0,0,0,0,0,0,0,0,0,0,0,0,0,0,0,0,0,0,0,0,0,0,0,0,0,0,0,0,0,0,0,1.8062,1.8062,0,1.8036,1.8035,1.8035,1.8005,1.8005,1.8004,1.8004,1.7975,1.7975,1.7974,0,0,0,0,0,0,0,0,0,0,0,0,0,1.8086,1.8086,1.8062,1.8062,1.8062,1.8036,1.8035,1.8035,1.8005,1.8005,1.8004,1.8004,1.7975,1.7975,1.7974,0,0,0,0,0,0,0,0,0,0,0,0,0,1.8069,1.8086,1.8062,1.8044,1.8042,1.8036,1.8035,1.8035,1.8005,1.8005,1.8004,1.8003,1.7975,1.7975,1.7974,1.7984,0,0,1.7973,1.7972,0,0,0,0,0,0,0,0,1.807,1.8068,1.8047,1.8045,1.8043,1.8023,1.8033,1.8018,1.8005,1.8019,1.8004,1.8003,1.7991,1.7989,1.7986,1.7983,1.7982,1.7972,1.7972,1.7972,1.7972,0,0,0,0,0,0,0,1.8071,1.8069,1.8052,1.8046,1.8044,1.8036,1.8033,1.803,1.8009,1.8018,1.8016,1.8013,1.799,1.7986,1.7985,1.7981,1.7972,1.7972,1.7972,1.7971,1.7985,1.7986,0,0,0,0,0,0,1.8076,1.8071,1.8052,1.8051,1.8055,1.8036,1.8033,1.803,1.8009,1.8005,1.8013,1.8012,1.7988,1.7986,1.7984,1.7994,1.7972,1.7971,1.7971,1.7984,1.7985,1.7986,0,0,0,0,0,0,1.8076,1.8074,1.8054,1.806,1.8057,1.8037,1.8034,1.803,1.8026,1.8006,1.8002,1.8014,1.7987,1.7985,1.7984,1.7992,1.7971,1.7971,1.7983,1.7985,1.7985,1.8014,0,0,0,0,0,0,1.8077,1.8075,1.8078,1.806,1.8057,1.8055,1.8034,1.803,1.8025,1.8023,1.8005,1.8001,1.7986,1.7985,1.7984,1.7991,1.797,1.7983,1.7984,1.7985,1.8012,1.8016,1.8019,0,0,0,0,0,1.8078,1.8087,1.8079,1.8077,1.8061,1.8055,1.8053,1.8036,1.8026,1.8029,1.8017,1.8002,1.7992,1.7986,1.7984,1.7991,1.7982,1.7984,1.7985,1.801,1.8015,1.8019,0,0,0,0,0,0,1.8105,1.8084,1.8075,1.8078,1.8069,1.805,1.8054,1.8041,1.8034,1.8032,1.8011,1.8007,1.8009,1.8,1.7993,1.8,1.7985,1.7986,1.8005,1.8009,1.8012,1.8014,1.797,0,0,0,0,0,1.8112,1.811,1.8091,1.8096,1.8092,1.8074,1.8071,1.8059,1.8048,1.8044,1.8031,1.8021,1.8015,1.8012,1.8006,1.8011,1.8007,1.8015,1.8019,1.8022,1.8022,1.8024,1.8028,1.7991,1.7991,1.7991,0,0,1.8125,1.8114,1.8113,1.8101,1.8093,1.809,1.8071,1.8069,1.8067,1.8043,1.8042,1.8033,1.802,1.8023,1.8023,1.8015,1.8032,1.8024,1.8026,1.8025,1.8026,1.803,1.8033,1.7992,1.7992,1.7991,0,0,1.8148,1.8139,1.8142,1.8134,1.8122,1.811,1.8111,1.8094,1.8087,1.8086,1.8068,1.8066,1.8057,1.8049,1.8043,1.8064,1.805,1.8063,1.808,1.8082,1.8085,1.8088,1.8094,1.8097,1.8064,1.8064,1.8065,0,1.8166,1.8162,1.8145,1.8145,1.814,1.812,1.8122,1.8115,1.8101,1.8098,1.809,1.8079,1.8069,1.8069,1.8075,1.8071,1.8071,1.8064,1.8086,1.8088,1.809,1.8097,1.8099,1.8066,1.8066,1.8066,1.8066,0,1.8184,1.8182,1.8186,1.8173,1.8169,1.817,1.8154,1.8152,1.8141,1.813,1.8129,1.8117,1.8107,1.8107,1.8096,1.8106,1.8101,1.809,1.8075,1.8096,1.8101,1.8103,1.8068,1.8068,1.8067,1.8067,0,0,1.8221,1.8201,1.8202,1.8196,1.8182,1.8179,1.818,1.8172,1.817,1.8162,1.8161,1.8155,1.8145,1.8139,1.8127,1.8129,1.8146,1.8117,1.8117,1.8122,1.8156,1.8163,1.8166,1.8138,1.8138,1.8138,1.8156,0,1.824,1.8239,1.8225,1.8229,1.8226,1.8208,1.8208,1.8199,1.819,1.8186,1.8175,1.8171,1.8158,1.8154,1.8156,1.8144,1.8152,1.8142,1.8136,1.8136,1.8138,1.8169,1.8177,1.8194,1.8158,1.8159,1.8159,0,1.8261,1.8255,1.8258,1.8244,1.8243,1.8243,1.8235,1.8232,1.8222,1.8214,1.8209,1.8195,1.8195,1.8182,1.818,1.8174,1.8171,1.8165,1.8165,1.8162,1.8147,1.8166,1.8199,1.8202,1.8162,1.8162,1.8162,0,1.8287,1.8279,1.828,1.8276,1.826,1.826,1.8254,1.8243,1.8239,1.8232,1.823,1.8223,1.8218,1.8213,1.8198,1.819,1.8198,1.8184,1.8192,1.8192,1.8192,1.8192,1.8225,1.8193,1.8193,1.8193,1.8193,0,1.8308,1.8311,1.8291,1.8292,1.8294,1.8278,1.8281,1.8272,1.8263,1.8261,1.8246,1.8244,1.8226,1.8222,1.8211,1.8211,1.821,1.8203,1.82,1.8204,1.8204,1.82,1.8198,1.8194,1.8194,1.8193,1.8193,0,1.8336,1.8323,1.8323,1.8308,1.8305,1.8307,1.8294,1.8294,1.8284,1.8282,1.8281,1.8265,1.826,1.8246,1.8237,1.823,1.8233,1.8227,1.8236,1.8234,1.8241,1.824,1.8271,1.8273,1.8242,1.8242,1.8242,0,1.835,1.8351,1.8337,1.8335,1.8329,1.8326,1.8323,1.8308,1.8305,1.8294,1.8295,1.8289,1.8283,1.8277,1.8264,1.8258,1.8251,1.8263,1.825,1.8254,1.825,1.825,1.8249,1.8265,1.8265,1.8265,1.8266,0,1.8375,1.8369,1.8365,1.8359,1.8355,1.8349,1.8342,1.8342,1.8325,1.8322,1.8318,1.8314,1.8305,1.83,1.8291,1.8284,1.8272,1.827,1.8271,1.8274,1.8279,1.8275,1.8242,1.8269,1.8269,1.8268,1.8268,1.8268,1.8395,1.8396,1.8386,1.8382,1.8376,1.837,1.8369,1.836,1.8356,1.8348,1.834,1.8336,1.8327,1.8314,1.8308,1.8305,1.8298,1.83,1.8301,1.8301,1.8302,1.8281,1.8304,1.8304,1.8303,1.8303,1.8303,0,1.8419,1.8412,1.8409,1.84,1.8397,1.8388,1.838,1.8378,1.8375,1.8367,1.8362,1.8357,1.8352,1.834,1.8333,1.8333,1.8327,1.8332,1.8331,1.8329,1.8309,1.8308,1.8337,1.8337,1.8337,1.8337,1.8337,1.8337,1.8431,1.8431,1.8424,1.8421,1.8415,1.8411,1.8408,1.8402,1.8396,1.8391,1.8387,1.838,1.837,1.8363,1.8358,1.8355,1.8352,1.8358,1.8353,1.8334,1.8331,1.8328,1.8327,1.8358,1.8358,1.8373,1.8373,1.8373]},{"header":{"parameterUnit":"m.s-1","parameterCategory":1,"la1":30.2991,"la2":30.254,"lo1":-89.0895,"lo2":-89.0444,"dy":0.0017,"dx":0.0017,"nx":28,"ny":28,"refTime":"2025-12-30T09:00:00:Z","depth":0,"parameterNumber":3,"parameterNumberName":"V-component_of_WINDS"},"data":[0,0,0,0,0,0,0,0,0,0,0,0,0,0,0,0,0,0,0,0,0,0,0,0,0,0,0,0,0,0,0,0,0,0,0,0,0,0,0,0,0,0,0,0,0,0,0,0,0,0,0,0,0,0,0,0,0,0,-5.0871,-5.0873,0,-5.1106,-5.1109,-5.1111,-5.108,-5.1076,-5.1072,-5.1068,-5.1308,-5.1318,-5.1328,0,0,0,0,0,0,0,0,0,0,0,0,0,-5.039,-5.0399,-5.087,-5.0873,-5.0876,-5.1106,-5.1109,-5.1112,-5.1081,-5.1076,-5.1071,-5.1067,-5.1305,-5.1316,-5.1328,0,0,0,0,0,0,0,0,0,0,0,0,0,-5.061,-5.0402,-5.087,-5.0888,-5.0892,-5.1105,-5.1109,-5.1113,-5.1082,-5.1076,-5.107,-5.1065,-5.1301,-5.1315,-5.133,-5.1539,0,0,-5.1376,-5.1382,0,0,0,0,0,0,0,0,-5.0597,-5.0627,-5.0883,-5.0887,-5.0892,-5.1058,-5.1027,-5.1256,-5.1083,-5.101,-5.1068,-5.1062,-5.1229,-5.125,-5.1307,-5.155,-5.1561,-5.1377,-5.1386,-5.1393,-5.1397,0,0,0,0,0,0,0,-5.0582,-5.0617,-5.0963,-5.0886,-5.0892,-5.0884,-5.0909,-5.1071,-5.1149,-5.1016,-5.1014,-5.1042,-5.1231,-5.1292,-5.1312,-5.1564,-5.1377,-5.139,-5.1399,-5.1405,-5.199,-5.1996,0,0,0,0,0,0,-5.0562,-5.0605,-5.0956,-5.0971,-5.0727,-5.0897,-5.0925,-5.101,-5.1147,-5.1163,-5.1047,-5.104,-5.127,-5.1295,-5.132,-5.1574,-5.1393,-5.1407,-5.1415,-5.1984,-5.1992,-5.1999,0,0,0,0,0,0,-5.0552,-5.0594,-5.0946,-5.0787,-5.0831,-5.0912,-5.1008,-5.1018,-5.108,-5.1171,-5.1185,-5.1096,-5.1266,-5.1299,-5.1485,-5.1582,-5.1413,-5.1427,-5.1976,-5.1986,-5.1995,-5.2083,0,0,0,0,0,0,-5.0539,-5.0591,-5.0672,-5.0789,-5.084,-5.1108,-5.1014,-5.1027,-5.1106,-5.1099,-5.122,-5.1235,-5.1264,-5.1463,-5.15,-5.1599,-5.1439,-5.1968,-5.198,-5.1992,-5.2072,-5.2094,-5.2114,0,0,0,0,0,-5.0522,-5.0687,-5.0676,-5.0718,-5.0943,-5.1114,-5.1143,-5.1174,-5.1114,-5.1195,-5.1254,-5.1231,-5.1565,-5.1482,-5.1524,-5.1629,-5.1962,-5.1977,-5.1991,-5.2062,-5.209,-5.2113,0,0,0,0,0,0,-5.0578,-5.0702,-5.0692,-5.09,-5.0997,-5.1108,-5.1212,-5.1202,-5.1317,-5.1306,-5.1338,-5.1366,-5.1554,-5.161,-5.1515,-5.1838,-5.1755,-5.1779,-5.1795,-5.1822,-5.1843,-5.1825,-5.1451,0,0,0,0,0,-5.0614,-5.0743,-5.0845,-5.1019,-5.1068,-5.1132,-5.1207,-5.1223,-5.1324,-5.1364,-5.1436,-5.1535,-5.1662,-5.1745,-5.1867,-5.2079,-5.2105,-5.2172,-5.2193,-5.221,-5.223,-5.2346,-5.2377,-5.2047,-5.2047,-5.2047,0,0,-5.0691,-5.0775,-5.0855,-5.1032,-5.1109,-5.1241,-5.1166,-5.131,-5.1408,-5.1386,-5.1566,-5.1622,-5.1734,-5.1934,-5.2025,-5.1986,-5.2327,-5.2229,-5.2241,-5.2253,-5.2364,-5.2395,-5.2423,-5.2057,-5.2055,-5.2054,0,0,-5.0899,-5.0976,-5.1129,-5.1208,-5.1325,-5.1366,-5.1402,-5.1516,-5.1553,-5.1734,-5.172,-5.1836,-5.2055,-5.2135,-5.2204,-5.2442,-5.2425,-5.248,-5.2591,-5.2703,-5.2729,-5.2752,-5.2837,-5.2867,-5.25,-5.25,-5.25,0,-5.098,-5.118,-5.1209,-5.1354,-5.1432,-5.1419,-5.1573,-5.1647,-5.1798,-5.1852,-5.1806,-5.208,-5.2154,-5.2372,-5.243,-5.2486,-5.2529,-5.2467,-5.2723,-5.2747,-5.2769,-5.285,-5.2881,-5.2506,-5.2505,-5.2505,-5.2504,0,-5.1273,-5.1411,-5.1521,-5.1667,-5.1757,-5.1906,-5.1958,-5.2045,-5.2052,-5.2098,-5.2282,-5.2371,-5.251,-5.2563,-5.2571,-5.2782,-5.2754,-5.2716,-5.2633,-5.2806,-5.2882,-5.2913,-5.2515,-5.2513,-5.2511,-5.2509,0,0,-5.1524,-5.1684,-5.1724,-5.179,-5.1917,-5.2025,-5.2172,-5.2309,-5.2384,-5.2488,-5.2612,-5.2797,-5.2762,-5.284,-5.2857,-5.2956,-5.3138,-5.2905,-5.2908,-5.2945,-5.3375,-5.3404,-5.3439,-5.3127,-5.3133,-5.3138,-5.3366,0,-5.1744,-5.2007,-5.2037,-5.227,-5.2398,-5.2386,-5.2515,-5.2607,-5.2653,-5.2768,-5.2818,-5.2949,-5.2893,-5.294,-5.3037,-5.3095,-5.3224,-5.3079,-5.3242,-5.3248,-5.3215,-5.3479,-5.351,-5.3722,-5.3396,-5.3401,-5.3405,0,-5.2037,-5.2149,-5.2396,-5.2505,-5.256,-5.2675,-5.2803,-5.2912,-5.3016,-5.3042,-5.313,-5.3134,-5.3285,-5.3196,-5.3405,-5.3306,-5.3374,-5.3412,-5.3421,-5.3438,-5.3337,-5.3503,-5.379,-5.3821,-5.3452,-5.3448,-5.3445,0,-5.2195,-5.2408,-5.2583,-5.264,-5.2772,-5.2853,-5.2912,-5.3009,-5.3089,-5.32,-5.3252,-5.3379,-5.3449,-5.3547,-5.3584,-5.3516,-5.3791,-5.3705,-5.3817,-5.3817,-5.3876,-5.3872,-5.4178,-5.392,-5.392,-5.3919,-5.3918,0,-5.2438,-5.2589,-5.2656,-5.2764,-5.2932,-5.2965,-5.313,-5.3185,-5.3272,-5.3389,-5.3387,-5.3497,-5.3539,-5.3656,-5.3686,-5.3855,-5.3886,-5.3911,-5.3918,-5.3912,-5.3909,-5.3958,-5.3944,-5.3927,-5.3926,-5.3924,-5.3922,0,-5.2644,-5.2695,-5.2884,-5.2994,-5.3024,-5.3144,-5.3237,-5.3341,-5.3385,-5.3534,-5.357,-5.364,-5.3777,-5.3824,-5.399,-5.4011,-5.4206,-5.42,-5.4172,-5.4173,-5.4283,-5.4272,-5.4631,-5.4679,-5.4389,-5.4392,-5.4394,0,-5.2796,-5.2912,-5.3034,-5.3112,-5.3174,-5.3301,-5.3382,-5.3418,-5.3503,-5.3629,-5.3718,-5.3854,-5.3965,-5.4184,-5.4249,-5.4376,-5.4373,-5.449,-5.4392,-5.4383,-5.4375,-5.4368,-5.4379,-5.4508,-5.4511,-5.4514,-5.4516,0,-5.306,-5.308,-5.3198,-5.3325,-5.3423,-5.3525,-5.3623,-5.3687,-5.3738,-5.3833,-5.3974,-5.406,-5.4229,-5.4364,-5.4494,-5.4553,-5.4544,-5.4546,-5.4579,-5.4575,-5.4554,-5.4566,-5.4222,-5.4538,-5.4536,-5.4534,-5.4533,-5.4532,-5.3244,-5.3347,-5.3448,-5.358,-5.3657,-5.3749,-5.3852,-5.3909,-5.4027,-5.4169,-5.4182,-5.4333,-5.4433,-5.4606,-5.4671,-5.4789,-5.4756,-5.4804,-5.4816,-5.4827,-5.4835,-5.4534,-5.4813,-5.4812,-5.4812,-5.4811,-5.4811,0,-5.3509,-5.3573,-5.3694,-5.3832,-5.3935,-5.3917,-5.4024,-5.4112,-5.4245,-5.4339,-5.4448,-5.4609,-5.474,-5.4815,-5.4946,-5.5026,-5.5024,-5.5059,-5.5053,-5.5067,-5.4857,-5.4816,-5.5058,-5.5058,-5.5058,-5.5057,-5.5057,-5.5057,-5.3659,-5.3831,-5.3862,-5.4072,-5.4135,-5.4284,-5.4347,-5.4431,-5.4506,-5.4686,-5.4795,-5.4843,-5.4929,-5.5066,-5.5185,-5.5203,-5.5252,-5.529,-5.5305,-5.5107,-5.5082,-5.5058,-5.5019,-5.53,-5.53,-5.5505,-5.5507,-5.5509]}]]